CZ-6A DEB, 54929

Orbit data source: Space-Track

CZ-6A DEB, 54929 is space debris in SSO originally from a launch on Fri, 11 Nov 2022 UTC launched from the Taiyaun Space Center, China (TSC). Debris objects in space refer to the collection of defunct objects orbiting the Earth. Examples of debris include non-operational satellites, rocket bodies, and fragments generated from explosions, collisions, or faulty payload assembly.

Loading next visibility...
Identifier
54929, 2022-151RS
Orbit
SSO
Country
Flag of CNCN / PRC
Related business
Manufacturer
SAST
Mission
Spacecraft
Bus & Motor
Unknown
Mass
Unknown
Launch date (UTC)
2022-11-11 (4 years ago)
Launch vehicle
Unknown
Launch site
Taiyaun Space Center, China (TSC)
Object type
Payload
Rocket body
Debris
Shape & HBR
Unknown shape, 0.1 m
Radar Cross Section
Small (<0.1 m²)

Expand to show TLE details & history
Last TLE update: 3 days ago

TLE from 3 days ago
0 CZ-6A DEB
1 54929U 22151RS  26170.72765532  .00008171  00000-0  12801-2 0  9994
2 54929  98.6189 237.7951 0068436 262.5023  96.8404 14.71412305188683
Epoch: 2026-06-19T17:27Z
TLE epoch observation values (Epoch: 2026-06-19T17:27:49.419Z)
Latitude
0.00004°
Longitude
67.88671°
Altitude
665.61 km
Speed
7.521 km/s
True Right ascension
15h 51m 10s
True Declination
0° 00' 00"
Sunlit
Object was in full shadow at epoch
Visualization orbit readout
Latitude
Unknown
Longitude
Unknown
Altitude
Unknown
Speed
Unknown
Apparent Right ascension
Unknown
Apparent Declination
Unknown
Sunlit
N/A
Visualization observer readout
Local Sidereal Time
23:08:48
Azimuth
Unknown
Elevation
Unknown
Doppler factor
Unknown
Orbital elements
Apogee altitude
701.771 km
Perigee altitude
605.526 km
Semi-major axis
7,031.786 km
Eccentricity
0.00684
Inclination
98.6189°
RAAN
237.7951°
Arg. of periapsis
262.5023°
True anomaly
97.61822°
Mean anomaly
96.8404°
Eccentric anomaly
97.22939°
Mean motion
3.68082 °/min
Orbital period
97.8 mins
BSTAR
0.0012801
Loading maneuver chart data...
Computing Atmospheric mass density...

Documentation

Showing up to 5 results
|